TimeCST,TemperatureF,Dew PointF,Humidity,Sea Level PressureIn,VisibilityMPH,Wind Direction,Wind SpeedMPH,Gust SpeedMPH,PrecipitationIn,Events,Conditions,WindDirDegrees,DateUTC
12:53 AM,52.0,48.9,89,30.25,6.0,Calm,Calm,-,N/A,,Mostly Cloudy,0,2013-11-05 06:53:00
1:53 AM,52.0,48.9,89,30.24,7.0,NE,4.6,-,N/A,,Clear,40,2013-11-05 07:53:00
2:53 AM,52.0,48.9,89,30.25,6.0,Calm,Calm,-,N/A,,Scattered Clouds,0,2013-11-05 08:53:00
3:53 AM,52.0,48.0,86,30.23,9.0,East,4.6,-,N/A,,Overcast,80,2013-11-05 09:53:00
4:53 AM,52.0,48.9,89,30.24,9.0,Calm,Calm,-,N/A,,Overcast,0,2013-11-05 10:53:00
5:53 AM,52.0,48.9,89,30.25,8.0,Calm,Calm,-,N/A,,Overcast,0,2013-11-05 11:53:00
6:53 AM,52.0,48.9,89,30.27,8.0,Calm,Calm,-,N/A,,Overcast,0,2013-11-05 12:53:00
7:53 AM,55.0,48.9,80,30.30,10.0,SSE,3.5,-,N/A,,Overcast,160,2013-11-05 13:53:00
8:53 AM,57.0,48.9,74,30.28,10.0,SSE,6.9,-,N/A,,Scattered Clouds,150,2013-11-05 14:53:00
9:53 AM,59.0,48.0,67,30.27,10.0,SE,8.1,-,N/A,,Mostly Cloudy,140,2013-11-05 15:53:00
10:53 AM,62.1,48.0,60,30.25,10.0,SSE,11.5,-,N/A,,Clear,150,2013-11-05 16:53:00
11:53 AM,64.9,48.0,54,30.23,10.0,South,8.1,-,N/A,,Mostly Cloudy,170,2013-11-05 17:53:00
12:53 PM,63.0,48.0,58,30.20,10.0,SSE,9.2,-,N/A,,Overcast,150,2013-11-05 18:53:00
1:53 PM,62.1,46.9,58,30.18,10.0,SSE,4.6,-,N/A,,Overcast,160,2013-11-05 19:53:00
2:53 PM,62.1,46.9,58,30.16,10.0,SE,8.1,-,N/A,,Overcast,140,2013-11-05 20:53:00
3:53 PM,61.0,46.9,60,30.15,10.0,ESE,3.5,-,N/A,,Overcast,120,2013-11-05 21:53:00
4:53 PM,60.1,48.0,64,30.14,10.0,Calm,Calm,-,N/A,,Overcast,0,2013-11-05 22:53:00
5:53 PM,59.0,50.0,72,30.13,10.0,Calm,Calm,-,N/A,,Overcast,0,2013-11-05 23:53:00
6:53 PM,59.0,48.9,69,30.12,10.0,Calm,Calm,-,N/A,,Overcast,0,2013-11-06 00:53:00
7:53 PM,57.9,50.0,75,30.09,10.0,SSE,4.6,-,N/A,,Mostly Cloudy,150,2013-11-06 01:53:00
8:53 PM,64.0,52.0,65,30.10,10.0,SSE,11.5,-,N/A,,Overcast,160,2013-11-06 02:53:00
9:53 PM,63.0,51.1,65,30.12,10.0,South,6.9,-,N/A,,Overcast,170,2013-11-06 03:53:00
10:53 PM,63.0,51.1,65,30.11,10.0,South,9.2,-,N/A,,Overcast,180,2013-11-06 04:53:00
11:53 PM,63.0,50.0,63,30.10,10.0,South,8.1,-,0.00,Rain,Light Rain,180,2013-11-06 05:53:00